FW9021 Weather Reports


Display with metric or nautical units.
time (UTC)temp
F
wind
direction
speed
MPH
gust
MPH
rain 1hr
in
rain 24hr
in
rain mn
in
humidity
%
barometer
mb
20260506233055 63 259 5.0 15.0 0.15 0.96 0.96 85 1013.2
20260506232538 63 355 10.0 15.0 0.08 0.88 0.88 85 1012.9
20260506232039 63 292 5.0 9.0 0.03 0.83 0.83 85 1012.9
20260506231550 63 17 3.0 7.0 0.05 0.83 0.83 85 1011.8
20260506231039 63 0 0.0 7.0 0.05 0.83 0.83 86 1011.8
20260506230538 63 360 2.0 7.0 0.04 0.82 0.82 85 1011.8
20260506230056 63 45 2.0 6.0 0.06 0.82 0.82 86 1011.6
20260506225543 63 105 3.0 6.0 0.08 0.82 0.82 85 1011.2
20260506225039 63 342 2.0 4.0 0.10 0.82 0.82 85 1012.8
20260506224551 63 53 2.0 4.0 0.18 0.81 0.81 86 1012.3
20260506224039 63 30 0.0 2.0 0.18 0.81 0.81 85 1012.6
20260506223539 63 191 0.0 2.0 0.18 0.81 0.81 86 1012.8
20260506223048 63 0 0.0 2.0 0.19 0.81 0.81 86 1012.6
20260506222539 63 0 0.0 2.0 0.18 0.80 0.80 86 1012.3
20260506222039 63 103 1.0 4.0 0.18 0.80 0.80 86 1012.3
20260506221548 63 0 0.0 4.0 0.16 0.78 0.78 86 1012.4
20260506221038 63 66 1.0 3.0 0.16 0.78 0.78 86 1012.4
20260506220539 63 0 0.0 4.0 0.16 0.78 0.78 86 1012.4
20260506220050 63 53 1.0 4.0 0.14 0.76 0.76 86 1012.4
20260506215538 63 19 1.0 3.0 0.13 0.74 0.74 86 1012.5
20260506215041 63 132 1.0 3.0 0.12 0.70 0.70 86 1012.6
20260506214602 63 47 1.0 3.0 0.07 0.63 0.63 86 1012.8
20260506214039 63 61 0.0 6.0 0.07 0.63 0.63 86 1012.4
20260506213541 63 0 1.0 6.0 0.08 0.63 0.63 86 1012.5
20260506213048 63 313 2.0 6.0 0.08 0.62 0.62 86 1012.4
20260506212538 63 0 1.0 6.0 0.10 0.62 0.62 86 1012.4
20260506212038 63 258 3.0 6.0 0.18 0.62 0.62 86 1012.5
20260506211548 63 0 0.0 3.0 0.31 0.62 0.62 86 1012.4
20260506211038 63 246 2.0 3.0 0.32 0.62 0.62 86 1012.5
20260506210537 63 192 1.0 4.0 0.32 0.62 0.62 86 1012.5
20260506210055 63 0 1.0 4.0 0.32 0.62 0.62 86 1012.4
20260506205538 63 113 2.0 4.0 0.30 0.60 0.60 86 1012.3
20260506205038 63 0 0.0 6.0 0.28 0.58 0.58 86 1012.5
20260506204552 63 342 2.0 7.0 0.26 0.56 0.56 86 1012.8
20260506204038 63 68 2.0 8.0 0.26 0.56 0.56 86 1012.4
20260506203542 63 20 2.0 12.0 0.25 0.55 0.55 86 1012.4
20260506203052 63 293 3.0 13.0 0.24 0.54 0.54 87 1012.7
20260506202539 64 336 6.0 13.0 0.22 0.52 0.52 87 1012.9
20260506202039 65 46 5.0 12.0 0.13 0.43 0.43 86 1013.4
20260506201544 66 352 7.0 10.0 0.01 0.31 0.31 86 1013.1
20260506201038 66 26 6.0 10.0 0.00 0.30 0.30 86 1012.3
20260506200539 66 63 5.0 9.0 0.00 0.30 0.30 86 1012.4
20260506200101 66 30 4.0 6.0 0.00 0.30 0.30 86 1012.4
20260506195538 66 55 2.0 5.0 0.00 0.30 0.30 86 1012.5
20260506195040 67 30 1.0 5.0 0.00 0.30 0.30 86 1012.7
20260506194556 67 63 2.0 5.0 0.00 0.30 0.30 86 1012.7
20260506194041 67 38 3.0 5.0 0.00 0.30 0.30 86 1012.8
20260506193538 67 0 1.0 3.0 0.00 0.30 0.30 86 1012.7
20260506193052 67 69 0.0 3.0 0.00 0.30 0.30 86 1012.7
20260506192538 67 81 1.0 3.0 0.00 0.30 0.30 86 1012.8
20260506192044 67 58 1.0 3.0 0.00 0.30 0.30 86 1012.8
20260506191559 67 34 0.0 4.0 0.00 0.30 0.30 86 1012.8
20260506191039 67 34 2.0 4.0 0.00 0.30 0.30 86 1012.9
20260506190538 67 340 0.0 4.0 0.00 0.30 0.30 86 1013.1
20260506190043 67 0 2.0 4.0 0.00 0.30 0.30 86 1013.1
20260506185538 67 43 2.0 4.0 0.00 0.30 0.30 86 1013.5
20260506185038 67 360 2.0 8.0 0.00 0.30 0.30 86 1013.4
20260506184543 67 0 1.0 9.0 0.00 0.30 0.30 86 1013.6
20260506184038 67 265 2.0 9.0 0.00 0.30 0.30 86 1013.4
20260506183539 67 270 4.0 11.0 0.00 0.30 0.30 86 1013.5
20260506183051 67 190 4.0 11.0 0.00 0.30 0.30 86 1013.5
20260506182538 67 139 3.0 11.0 0.00 0.30 0.30 86 1013.6
20260506182038 67 124 4.0 11.0 0.00 0.30 0.30 86 1014.0
20260506181556 67 236 5.0 13.0 0.00 0.30 0.30 86 1014.1
20260506181038 67 254 4.0 13.0 0.00 0.30 0.30 86 1014.2
20260506180539 66 255 5.0 13.0 0.00 0.30 0.30 86 1014.0
20260506180105 66 219 8.0 13.0 0.00 0.30 0.30 86 1013.9
20260506175538 66 243 8.0 12.0 0.00 0.30 0.30 86 1014.0
20260506175038 66 290 8.0 15.0 0.00 0.30 0.30 86 1014.0
20260506174546 66 267 4.0 18.0 0.00 0.30 0.30 86 1013.9
20260506174038 66 217 7.0 18.0 0.00 0.30 0.30 86 1014.0
20260506173538 66 277 12.0 18.0 0.00 0.30 0.30 86 1014.0
20260506173054 66 251 10.0 14.0 0.00 0.30 0.30 86 1014.0
20260506172538 66 252 8.0 12.0 0.00 0.30 0.30 86 1014.0
20260506172038 65 346 1.0 10.0 0.00 0.30 0.30 86 1013.9
20260506171547 65 11 4.0 10.0 0.00 0.30 0.30 86 1013.8
20260506171041 65 326 4.0 11.0 0.00 0.30 0.30 86 1013.7
20260506170539 65 259 4.0 11.0 0.00 0.30 0.30 86 1013.7
20260506170050 65 205 1.0 11.0 0.00 0.30 0.30 86 1013.7
20260506165538 64 0 2.0 12.0 0.00 0.30 0.30 86 1013.6
20260506165039 64 229 3.0 12.0 0.00 0.30 0.30 86 1013.7
20260506164544 64 231 3.0 8.0 0.00 0.30 0.30 86 1013.6
20260506164040 65 109 4.0 12.0 0.00 0.30 0.30 87 1013.7
20260506163538 65 225 3.0 12.0 0.00 0.30 0.30 86 1013.8
20260506163053 65 137 3.0 13.0 0.01 0.30 0.30 86 1013.8
20260506162538 65 215 6.0 14.0 0.01 0.30 0.30 86 1014.3
20260506162041 65 242 5.0 14.0 0.01 0.30 0.30 86 1014.6
20260506161555 65 239 3.0 8.0 0.02 0.30 0.30 87 1014.5
20260506161039 64 211 3.0 5.0 0.06 0.30 0.30 87 1014.5
20260506160539 64 254 1.0 4.0 0.07 0.30 0.30 86 1014.2
20260506160051 64 0 1.0 4.0 0.07 0.30 0.30 87 1013.7
20260506155541 64 91 0.0 8.0 0.07 0.30 0.30 87 1013.8
20260506155038 64 235 2.0 9.0 0.08 0.30 0.30 87 1013.9
20260506154549 63 259 5.0 12.0 0.09 0.30 0.30 87 1014.2
20260506154039 63 258 4.0 12.0 0.09 0.30 0.30 87 1014.3
20260506153539 63 231 6.0 11.0 0.16 0.30 0.30 86 1014.9
20260506153049 63 119 3.0 13.0 0.17 0.29 0.29 87 1014.3
20260506152538 63 232 6.0 14.0 0.29 0.29 0.29 87 1015.0
20260506152041 63 255 8.0 17.0 0.29 0.29 0.29 86 1015.2
20260506151546 63 244 8.0 17.0 0.28 0.28 0.28 87 1015.2
20260506151038 63 243 12.0 17.0 0.24 0.24 0.24 87 1015.3
20260506150538 63 255 7.0 14.0 0.23 0.23 0.23 87 1014.8
20260506150046 63 235 7.0 17.0 0.23 0.23 0.23 87 1014.8
20260506145539 63 248 8.0 17.0 0.23 0.23 0.23 87 1014.6
20260506145039 63 246 10.0 17.0 0.22 0.22 0.22 87 1014.8
20260506144602 63 244 10.0 18.0 0.21 0.21 0.21 87 1014.6
20260506144038 63 256 6.0 18.0 0.21 0.21 0.21 87 1014.3
20260506143539 63 226 10.0 18.0 0.14 0.14 0.14 86 1014.6
20260506143050 64 225 8.0 16.0 0.12 0.12 0.12 86 1014.3
20260506142539 64 252 9.0 15.0 0.00 0.00 0.00 85 1014.3
20260506142038 64 253 6.0 15.0 0.00 0.00 0.00 85 1014.3
20260506141544 64 304 7.0 16.0 0.00 0.00 0.00 84 1014.1
20260506141039 65 254 10.0 16.0 0.00 0.00 0.00 84 1014.0
20260506140538 65 257 10.0 16.0 0.00 0.00 0.00 84 1013.8
20260506140043 65 239 9.0 15.0 0.00 0.00 0.00 84 1013.7
20260506135538 65 235 10.0 15.0 0.00 0.00 0.00 83 1013.6
20260506135039 65 237 9.0 15.0 0.00 0.00 0.00 83 1013.4
20260506134554 65 221 8.0 16.0 0.00 0.00 0.00 82 1013.2
20260506134038 65 247 10.0 16.0 0.00 0.00 0.00 82 1013.5
20260506133539 65 254 7.0 15.0 0.00 0.00 0.00 81 1013.7
20260506133053 65 251 9.0 15.0 0.00 0.00 0.00 81 1013.7
20260506132539 65 235 6.0 15.0 0.00 0.00 0.00 81 1013.4
20260506132039 65 267 4.0 11.0 0.00 0.00 0.00 81 1013.4
20260506131552 65 254 4.0 8.0 0.00 0.00 0.00 80 1013.5
20260506131038 65 322 1.0 4.0 0.00 0.00 0.00 80 1013.4
20260506130539 65 0 1.0 6.0 0.00 0.00 0.00 79 1013.1
20260506130052 65 0 2.0 6.0 0.00 0.00 0.00 80 1013.0
20260506125538 65 328 1.0 4.0 0.00 0.00 0.00 79 1013.1
20260506125041 65 280 1.0 6.0 0.00 0.00 0.00 79 1013.0
20260506124551 65 0 1.0 13.0 0.00 0.00 0.00 79 1012.9
20260506124041 65 309 2.0 13.0 0.00 0.00 0.00 79 1013.1
20260506123538 65 268 6.0 13.0 0.00 0.00 0.00 79 1013.0
20260506123058 65 267 4.0 9.0 0.00 0.00 0.00 79 1012.9
20260506122538 65 0 3.0 9.0 0.00 0.00 0.00 79 1013.0
20260506122039 65 273 3.0 13.0 0.00 0.00 0.00 79 1012.7
20260506121554 65 275 6.0 16.0 0.00 0.00 0.00 79 1012.5
20260506121039 65 192 4.0 16.0 0.00 0.00 0.00 78 1012.5
20260506120538 66 168 6.0 13.0 0.00 0.00 0.00 77 1013.0
20260506120050 66 278 3.0 12.0 0.00 0.00 0.00 77 1013.0
20260506115541 66 247 7.0 12.0 0.00 0.00 0.00 77 1013.2
20260506115038 66 258 4.0 13.0 0.00 0.00 0.00 76 1013.0
20260506114553 66 246 6.0 13.0 0.00 0.00 0.00 76 1013.0
20260506114038 66 252 5.0 11.0 0.00 0.00 0.00 76 1012.9
20260506113538 66 267 6.0 11.0 0.00 0.00 0.00 76 1012.9
20260506113044 66 178 3.0 10.0 0.00 0.00 0.00 75 1012.8
20260506112542 66 236 2.0 13.0 0.00 0.00 0.00 75 1012.7
20260506112043 66 271 3.0 13.0 0.00 0.00 0.00 75 1012.8
20260506111558 66 247 6.0 13.0 0.00 0.00 0.00 75 1012.8
20260506111038 66 246 5.0 11.0 0.00 0.00 0.00 75 1012.2
20260506110538 66 326 2.0 9.0 0.00 0.00 0.00 75 1012.1
20260506110047 66 266 3.0 10.0 0.00 0.00 0.00 74 1012.0
20260506105538 66 221 5.0 15.0 0.00 0.00 0.00 74 1012.1
20260506105041 66 265 2.0 15.0 0.00 0.00 0.00 73 1012.1
20260506104555 67 211 3.0 15.0 0.00 0.00 0.00 74 1012.3
20260506104038 67 223 5.0 15.0 0.00 0.00 0.00 74 1012.3
20260506103538 67 255 8.0 15.0 0.00 0.00 0.00 74 1012.6
20260506103049 67 241 7.0 14.0 0.00 0.00 0.00 73 1012.5
20260506102542 67 146 7.0 14.0 0.00 0.00 0.00 74 1012.5
20260506102038 67 243 8.0 17.0 0.00 0.00 0.00 72 1012.3
20260506101546 67 241 10.0 17.0 0.00 0.00 0.00 73 1012.2
20260506101040 67 215 8.0 17.0 0.00 0.00 0.00 73 1012.1
20260506100538 68 240 9.0 19.0 0.00 0.00 0.00 72 1012.1
20260506100048 68 229 8.0 19.0 0.00 0.00 0.00 72 1012.0
20260506095539 68 237 8.0 17.0 0.00 0.00 0.00 72 1012.0
20260506095040 68 209 9.0 17.0 0.00 0.00 0.00 72 1011.8
20260506094553 68 244 6.0 17.0 0.00 0.00 0.00 72 1011.8
20260506094038 68 246 6.0 23.0 0.00 0.00 0.00 72 1011.8
20260506093539 68 244 9.0 23.0 0.00 0.00 0.00 72 1011.6
20260506093048 68 250 8.0 17.0 0.00 0.00 0.00 72 1011.5
20260506092539 68 259 10.0 17.0 0.00 0.00 0.00 72 1011.7
20260506092039 68 196 7.0 17.0 0.00 0.00 0.00 72 1011.6
20260506091549 68 189 3.0 19.0 0.00 0.00 0.00 72 1011.4
20260506091039 68 219 11.0 19.0 0.00 0.00 0.00 71 1011.2
20260506090538 68 253 3.0 12.0 0.00 0.00 0.00 72 1011.0
20260506090044 68 144 6.0 12.0 0.00 0.00 0.00 73 1011.1
20260506085538 68 321 4.0 11.0 0.00 0.00 0.00 72 1011.3
20260506085041 67 249 3.0 9.0 0.00 0.00 0.00 72 1011.4
20260506084555 68 235 2.0 9.0 0.00 0.00 0.00 73 1011.4
20260506084038 68 231 4.0 12.0 0.00 0.00 0.00 73 1011.3
20260506083538 68 258 7.0 12.0 0.00 0.00 0.00 74 1011.3
20260506083100 68 250 4.0 9.0 0.00 0.00 0.00 73 1011.1
20260506082538 68 256 1.0 6.0 0.00 0.00 0.00 73 1011.3
20260506082040 68 0 0.0 7.0 0.00 0.00 0.00 72 1011.3
20260506081554 68 273 0.0 7.0 0.00 0.00 0.00 71 1011.6
20260506081038 68 271 3.0 6.0 0.00 0.00 0.00 73 1011.5
20260506080542 68 274 1.0 11.0 0.00 0.00 0.00 72 1011.4
20260506073102 69 257 8.0 23.0 0.00 0.00 0.00 70 1011.7
20260506072543 69 223 9.0 22.0 0.00 0.00 0.00 70 1011.7
20260506072041 69 189 9.0 19.0 0.00 0.00 0.00 70 1011.7
20260506071551 69 234 7.0 23.0 0.00 0.00 0.00 70 1011.5
20260506071042 69 267 10.0 23.0 0.00 0.00 0.00 70 1011.7
20260506070540 69 222 10.0 22.0 0.00 0.00 0.00 69 1011.7
20260506062040 69 262 2.0 20.0 0.00 0.00 0.00 63 1012.0
20260506061544 69 271 7.0 20.0 0.00 0.00 0.00 65 1012.1
20260506061040 69 264 5.0 11.0 0.00 0.00 0.00 64 1012.4
20260506060541 69 232 6.0 18.0 0.00 0.00 0.00 63 1012.5
20260506051041 69 261 0.0 4.0 0.00 0.00 0.00 58 1012.7
20260506050540 69 312 2.0 6.0 0.00 0.00 0.00 59 1012.6
20260506050106 69 205 2.0 7.0 0.00 0.00 0.00 57 1012.8
20260506045040 69 298 2.0 7.0 0.00 0.00 0.00 57 1012.5
20260506044552 69 228 3.0 7.0 0.00 0.00 0.00 58 1012.6
20260506044041 69 336 2.0 7.0 0.00 0.00 0.00 56 1012.7
20260506043540 69 115 2.0 7.0 0.00 0.00 0.00 58 1013.0
20260506043049 69 228 3.0 7.0 0.00 0.00 0.00 59 1012.9
20260506042540 69 219 2.0 6.0 0.00 0.00 0.00 60 1012.7
20260506042040 69 0 2.0 10.0 0.00 0.00 0.00 58 1012.8
20260506041553 69 269 3.0 10.0 0.00 0.00 0.00 57 1012.7
20260506041040 69 234 3.0 8.0 0.00 0.00 0.00 58 1012.6
20260506040540 69 315 0.0 7.0 0.00 0.00 0.00 58 1012.4
20260506040050 69 256 2.0 7.0 0.00 0.00 0.00 57 1012.4
20260506035540 69 273 0.0 7.0 0.00 0.00 0.00 57 1012.4
20260506035041 69 0 0.0 7.0 0.00 0.00 0.00 57 1012.6
20260506034549 69 0 1.0 7.0 0.00 0.00 0.00 58 1012.9
20260506034038 69 198 1.0 7.0 0.00 0.00 0.00 55 1012.8
20260506033538 69 146 1.0 6.0 0.00 0.00 0.00 58 1012.8
20260506033049 68 0 2.0 6.0 0.00 0.00 0.00 57 1012.9
20260506032538 68 316 1.0 3.0 0.00 0.00 0.00 56 1013.0
20260506032038 68 43 0.0 2.0 0.00 0.00 0.00 56 1013.0
20260506031552 68 38 0.0 2.0 0.00 0.00 0.00 57 1013.0
20260506031040 68 0 0.0 2.0 0.00 0.00 0.00 57 1013.1
20260506030540 68 174 0.0 3.0 0.00 0.00 0.00 60 1013.1
20260506030057 68 0 0.0 3.0 0.00 0.00 0.00 57 1013.0
20260506025538 68 177 1.0 3.0 0.00 0.00 0.00 57 1012.9
20260506025042 68 157 0.0 2.0 0.00 0.00 0.00 57 1013.0
20260506024559 68 157 0.0 2.0 0.00 0.00 0.00 57 1012.9
20260506024038 68 0 0.0 2.0 0.00 0.00 0.00 59 1012.9
20260506023539 67 109 0.0 2.0 0.00 0.00 0.00 59 1012.8
20260506023044 67 46 0.0 2.0 0.00 0.00 0.00 60 1012.9
20260506022538 68 0 0.0 2.0 0.00 0.00 0.00 59 1012.8
20260506022038 67 0 0.0 2.0 0.00 0.00 0.00 60 1012.8
20260506021556 67 0 1.0 2.0 0.00 0.00 0.00 60 1012.8
20260506021038 67 0 0.0 2.0 0.00 0.00 0.00 60 1012.8
20260506020538 67 0 0.0 2.0 0.00 0.00 0.00 60 1012.8
20260506020047 67 0 0.0 3.0 0.00 0.00 0.00 60 1012.8
20260506015538 67 352 0.0 3.0 0.00 0.00 0.00 60 1012.7
20260506015038 67 326 1.0 3.0 0.00 0.00 0.00 62 1012.7
20260506014545 66 0 1.0 3.0 0.00 0.00 0.00 61 1012.5
20260506014038 66 0 1.0 3.0 0.00 0.00 0.00 60 1012.6
20260506013538 66 92 1.0 3.0 0.00 0.00 0.00 62 1012.5
20260506013048 66 50 1.0 3.0 0.00 0.00 0.00 63 1012.3
20260506012538 66 131 1.0 3.0 0.00 0.00 0.00 63 1012.4
20260506012038 66 131 1.0 3.0 0.00 0.00 0.00 62 1012.4
20260506011615 67 134 1.0 3.0 0.00 0.00 0.00 61 1012.2
20260506011038 67 134 0.0 3.0 0.00 0.00 0.00 60 1012.2
20260506010538 67 0 1.0 3.0 0.00 0.00 0.00 59 1012.3
20260506010048 67 134 1.0 2.0 0.00 0.00 0.00 59 1012.3
20260506005538 68 134 0.0 2.0 0.00 0.00 0.00 58 1012.4
20260506005043 68 134 0.0 2.0 0.00 0.00 0.00 57 1012.3
20260506004551 69 134 0.0 2.0 0.00 0.00 0.00 57 1012.4
20260506004038 69 134 0.0 2.0 0.00 0.00 0.00 56 1012.3
20260506003539 69 0 0.0 2.0 0.00 0.00 0.00 56 1012.3
20260506003051 69 0 0.0 3.0 0.00 0.00 0.00 55 1012.3
20260506002538 70 0 0.0 3.0 0.00 0.00 0.00 54 1012.4
20260506002038 70 76 0.0 3.0 0.00 0.00 0.00 53 1012.7
20260506001557 70 0 1.0 3.0 0.00 0.00 0.00 52 1012.5
20260506001038 70 282 0.0 3.0 0.00 0.00 0.00 53 1012.4
20260506000538 70 0 1.0 3.0 0.00 0.00 0.00 51 1012.4
20260506000057 70 0 0.0 3.0 0.00 0.00 0.00 52 1012.5
20260505235538 70 107 0.0 4.0 0.00 0.00 0.00 52 1012.4
20260505235038 70 252 2.0 7.0 0.00 0.00 0.00 51 1012.4
20260505234546 70 304 2.0 7.0 0.00 0.00 0.00 50 1012.2
20260505234042 70 275 3.0 7.0 0.00 0.00 0.00 52 1012.1
20260505233538 69 261 1.0 7.0 0.00 0.00 0.00 54 1012.1